User: anonymous   Login
Location: Potawatomi Wildlife Park
(41.2308°N, 86.1050°W)
Time: 07:07:53
(UTC-05:00)
Language:

SL-16 R/B - Orbit

View from above orbital plane
View from above orbital plane
View from above satellite
View from above satellite

Ground track
Ground track

The orbit data is extracted from the following two-line orbital elements,

1 27006U 01056F   16042.40505822 -.00000045  00000-0 -27825-5 0  9996
2 27006  99.2374 194.6283 0015106 149.9615 235.3286 13.70970666709114
Epoch (UTC): 11 February 2016 09:43:17
Eccentricity: 0.0015106
inclination: 99.2374°
perigee height: 985 km
apogee height: 1007 km
right ascension of ascending node: 194.6283°
argument of perigee: 149.9615°
revolutions per day: 13.70970666
mean anomaly at epoch: 235.3286°
orbit number at epoch: 70911

The dashed part of the orbit path shows where the satellite is in the earth's shadow,  

DLR